[[{"header":{"parameterUnit":"m.s-1","parameterCategory":1,"la1":30.2991,"la2":30.254,"lo1":-89.0895,"lo2":-89.0444,"dy":0.0017,"dx":0.0017,"nx":28,"ny":28,"refTime":"2024-07-07T09:00:00:Z","depth":0,"parameterNumber":2,"parameterNumberName":"U-component_of_WINDS"},"data":[0,0,0,0,0,0,0,0,0,0,0,0,0,0,0,0,0,0,0,0,0,0,0,0,0,0,0,0,0,0,0,0,0,0,0,0,0,0,0,0,0,0,0,0,0,0,0,0,0,0,0,0,0,0,0,0,0,0,1.4484,1.4484,0,1.4487,1.4487,1.4487,1.4408,1.4405,1.4403,1.4401,1.4406,1.4408,1.441,0,0,0,0,0,0,0,0,0,0,0,0,0,1.4411,1.4413,1.4484,1.4484,1.4484,1.4487,1.4487,1.4487,1.4408,1.4405,1.4403,1.44,1.4405,1.4408,1.441,0,0,0,0,0,0,0,0,0,0,0,0,0,1.4432,1.4414,1.4484,1.4445,1.4442,1.4487,1.4487,1.4487,1.4409,1.4405,1.4402,1.4399,1.4404,1.4407,1.4411,1.4494,0,0,1.442,1.4422,0,0,0,0,0,0,0,0,1.4431,1.4434,1.4451,1.4448,1.4444,1.4444,1.4463,1.449,1.4409,1.4421,1.4401,1.4398,1.4421,1.4423,1.443,1.4494,1.4494,1.4421,1.4422,1.4424,1.4425,0,0,0,0,0,0,0,1.4429,1.4434,1.4485,1.4451,1.4447,1.4428,1.4427,1.4468,1.4439,1.442,1.4414,1.4415,1.4419,1.4428,1.443,1.4495,1.442,1.4423,1.4425,1.4426,1.4627,1.463,0,0,0,0,0,0,1.4433,1.4433,1.4485,1.4485,1.4429,1.4432,1.4431,1.4447,1.4438,1.4434,1.4418,1.4412,1.4424,1.4426,1.443,1.4527,1.4424,1.4427,1.4429,1.4623,1.4628,1.4631,0,0,0,0,0,0,1.4432,1.4438,1.4485,1.4458,1.4462,1.4436,1.4455,1.4449,1.4457,1.4437,1.4432,1.4432,1.4421,1.4425,1.4478,1.4526,1.4428,1.4431,1.4619,1.4625,1.4629,1.4722,0,0,0,0,0,0,1.443,1.4438,1.447,1.4459,1.4464,1.4534,1.4458,1.4451,1.4463,1.4455,1.4449,1.4445,1.4419,1.4474,1.4482,1.4528,1.4434,1.4615,1.4622,1.4628,1.4714,1.4729,1.4742,0,0,0,0,0,1.4428,1.4496,1.4472,1.4478,1.4502,1.4537,1.454,1.4508,1.4467,1.4498,1.4485,1.4445,1.4519,1.448,1.4488,1.4536,1.4612,1.462,1.4627,1.4708,1.4726,1.4742,0,0,0,0,0,0,1.4514,1.4494,1.4467,1.4534,1.4537,1.4523,1.4562,1.4528,1.4544,1.4536,1.4496,1.4496,1.4555,1.4551,1.4508,1.4617,1.4558,1.4568,1.4617,1.4635,1.4648,1.4648,1.4436,0,0,0,0,0,1.454,1.457,1.4551,1.4612,1.4615,1.4588,1.4602,1.4577,1.458,1.4581,1.4572,1.4576,1.46,1.4617,1.4638,1.4713,1.4711,1.475,1.4764,1.4776,1.4785,1.4824,1.4841,1.4657,1.4656,1.4656,0,0,1.4596,1.4589,1.461,1.4629,1.4629,1.466,1.459,1.4626,1.4649,1.4587,1.4636,1.463,1.4632,1.4696,1.4724,1.4695,1.4835,1.4786,1.4795,1.4798,1.4834,1.4851,1.4867,1.4662,1.4661,1.466,0,0,1.4713,1.4711,1.4761,1.4762,1.4763,1.4744,1.4757,1.4748,1.4741,1.4789,1.4743,1.477,1.4812,1.4816,1.4823,1.4941,1.4905,1.4949,1.5022,1.5061,1.5076,1.5088,1.513,1.5146,1.4958,1.4958,1.4958,0,1.4783,1.4827,1.4791,1.483,1.484,1.4784,1.4835,1.4838,1.4846,1.4854,1.482,1.4872,1.487,1.4934,1.4963,1.4971,1.4984,1.495,1.5076,1.5089,1.51,1.514,1.5156,1.4964,1.4963,1.4962,1.4962,0,1.4913,1.4944,1.4985,1.4993,1.5007,1.5052,1.5023,1.5042,1.5016,1.5001,1.5052,1.5047,1.5066,1.5079,1.5054,1.514,1.5122,1.5083,1.5024,1.5124,1.516,1.5175,1.4971,1.4969,1.4968,1.4966,0,0,1.5085,1.5072,1.5088,1.509,1.5087,1.5111,1.5153,1.5171,1.5188,1.5195,1.523,1.5267,1.523,1.5239,1.5214,1.5248,1.5342,1.5205,1.5204,1.523,1.5436,1.5465,1.5484,1.5317,1.532,1.5322,1.5436,0,1.5199,1.527,1.5238,1.5313,1.5342,1.5289,1.5325,1.5327,1.5315,1.5338,1.5324,1.5351,1.5301,1.5305,1.5337,1.5324,1.5382,1.5315,1.535,1.5351,1.5351,1.5503,1.5534,1.5642,1.545,1.5452,1.5454,0,1.5341,1.5354,1.5431,1.5422,1.5433,1.5466,1.548,1.5502,1.5503,1.5492,1.5501,1.5468,1.5509,1.545,1.5506,1.5461,1.5473,1.5469,1.5472,1.5474,1.5409,1.551,1.5675,1.5691,1.5476,1.5475,1.5473,0,1.546,1.5496,1.5546,1.555,1.5541,1.5565,1.5563,1.556,1.5573,1.5585,1.5593,1.561,1.562,1.5634,1.5606,1.5566,1.5666,1.5605,1.5658,1.5659,1.5682,1.5681,1.5852,1.569,1.569,1.5689,1.5689,0,1.559,1.564,1.5599,1.5631,1.5684,1.5647,1.5702,1.5693,1.5691,1.572,1.5675,1.5704,1.5665,1.569,1.5669,1.5719,1.5723,1.5715,1.5709,1.572,1.5721,1.5727,1.5719,1.5694,1.5693,1.5692,1.5691,0,1.5732,1.5706,1.5758,1.5744,1.5742,1.5782,1.5771,1.5799,1.5783,1.582,1.5827,1.5802,1.5828,1.5802,1.5827,1.5813,1.588,1.5863,1.5879,1.5875,1.5929,1.5925,1.6111,1.6134,1.5957,1.5959,1.596,0,1.5817,1.5854,1.5844,1.5859,1.5859,1.5885,1.5898,1.5863,1.5878,1.5881,1.5909,1.5932,1.5948,1.5993,1.5978,1.5996,1.598,1.6044,1.5982,1.5991,1.5981,1.5979,1.5982,1.6056,1.6058,1.606,1.6061,0,1.5971,1.5957,1.5976,1.5991,1.6007,1.6017,1.6024,1.604,1.6004,1.6023,1.6049,1.6062,1.6087,1.611,1.6124,1.6121,1.6086,1.6081,1.6094,1.6105,1.6114,1.611,1.5914,1.6077,1.6075,1.6074,1.6073,1.6073,1.6087,1.6117,1.6114,1.6137,1.6139,1.6146,1.6172,1.6159,1.618,1.6197,1.6175,1.6208,1.6207,1.6223,1.6224,1.6249,1.6222,1.6241,1.6246,1.6252,1.626,1.6109,1.6251,1.6251,1.6251,1.625,1.625,0,1.6239,1.6234,1.6256,1.6267,1.6285,1.6249,1.6254,1.6272,1.6301,1.6303,1.632,1.635,1.6372,1.6358,1.6377,1.6399,1.6384,1.6406,1.6404,1.6404,1.6283,1.6269,1.6418,1.6418,1.6418,1.6418,1.6418,1.6418,1.632,1.6369,1.6354,1.6403,1.6398,1.6429,1.6435,1.6442,1.6443,1.6479,1.6496,1.6487,1.6483,1.65,1.6519,1.6514,1.6524,1.6552,1.6541,1.6429,1.6412,1.6396,1.6384,1.6554,1.6554,1.666,1.6661,1.6661]},{"header":{"parameterUnit":"m.s-1","parameterCategory":1,"la1":30.2991,"la2":30.254,"lo1":-89.0895,"lo2":-89.0444,"dy":0.0017,"dx":0.0017,"nx":28,"ny":28,"refTime":"2024-07-07T09:00:00:Z","depth":0,"parameterNumber":3,"parameterNumberName":"V-component_of_WINDS"},"data":[0,0,0,0,0,0,0,0,0,0,0,0,0,0,0,0,0,0,0,0,0,0,0,0,0,0,0,0,0,0,0,0,0,0,0,0,0,0,0,0,0,0,0,0,0,0,0,0,0,0,0,0,0,0,0,0,0,0,1.3176,1.3178,0,1.3342,1.3344,1.3345,1.3306,1.3303,1.33,1.3297,1.3469,1.3477,1.3484,0,0,0,0,0,0,0,0,0,0,0,0,0,1.2827,1.2834,1.3176,1.3178,1.318,1.3341,1.3344,1.3346,1.3307,1.3303,1.3299,1.3295,1.3467,1.3476,1.3485,0,0,0,0,0,0,0,0,0,0,0,0,0,1.2984,1.2836,1.3175,1.318,1.3182,1.3341,1.3344,1.3346,1.3308,1.3303,1.3298,1.3293,1.3464,1.3475,1.3486,1.3652,0,0,1.3521,1.3526,0,0,0,0,0,0,0,0,1.2975,1.2997,1.3177,1.318,1.3182,1.3298,1.3284,1.3449,1.3309,1.326,1.3297,1.3291,1.3416,1.3431,1.3473,1.366,1.3667,1.3522,1.3529,1.3534,1.3537,0,0,0,0,0,0,0,1.2965,1.299,1.3241,1.318,1.3183,1.3174,1.3191,1.3315,1.3363,1.3264,1.3261,1.3281,1.3417,1.3462,1.3477,1.367,1.3522,1.3532,1.3539,1.3543,1.4002,1.4007,0,0,0,0,0,0,1.2951,1.2981,1.3236,1.3246,1.3065,1.3184,1.3203,1.3266,1.3362,1.3372,1.3285,1.3279,1.3445,1.3464,1.3483,1.3684,1.3534,1.3544,1.3551,1.3996,1.4003,1.4009,0,0,0,0,0,0,1.2944,1.2974,1.3229,1.3113,1.3145,1.3195,1.3266,1.3272,1.3317,1.3378,1.3386,1.3323,1.3442,1.3467,1.361,1.3689,1.3549,1.356,1.399,1.3998,1.4006,1.4087,0,0,0,0,0,0,1.2934,1.2972,1.3035,1.3115,1.3151,1.3354,1.3271,1.3278,1.3336,1.333,1.3415,1.3425,1.344,1.3593,1.3621,1.3703,1.3568,1.3983,1.3994,1.4003,1.4078,1.4097,1.4114,0,0,0,0,0,1.2922,1.3052,1.3039,1.307,1.3231,1.3358,1.3379,1.3394,1.3343,1.3407,1.3446,1.3422,1.3676,1.3608,1.364,1.3725,1.3978,1.3991,1.4002,1.407,1.4093,1.4113,0,0,0,0,0,0,1.2982,1.3063,1.3049,1.3208,1.3277,1.3351,1.3433,1.3418,1.3503,1.3494,1.3508,1.3528,1.3675,1.3714,1.3638,1.3891,1.382,1.3839,1.386,1.3883,1.3901,1.3889,1.3578,0,0,0,0,0,1.3013,1.3109,1.3175,1.331,1.3344,1.3383,1.3439,1.3444,1.3516,1.3545,1.3594,1.3665,1.3761,1.3824,1.3915,1.4082,1.4101,1.4157,1.4175,1.4189,1.4206,1.4298,1.4324,1.4048,1.4048,1.4048,0,0,1.308,1.3136,1.3196,1.3323,1.3376,1.3476,1.3408,1.3516,1.359,1.3561,1.37,1.3738,1.3819,1.3975,1.4046,1.4012,1.4286,1.4205,1.4216,1.4225,1.4313,1.4339,1.4362,1.4056,1.4055,1.4054,0,0,1.3253,1.3305,1.3423,1.3477,1.3559,1.3583,1.3612,1.3689,1.3713,1.3852,1.3832,1.3921,1.4085,1.4143,1.4195,1.4388,1.437,1.4417,1.4512,1.4602,1.4624,1.4643,1.4713,1.4738,1.4434,1.4434,1.4434,0,1.3327,1.3475,1.3486,1.3596,1.3653,1.3629,1.375,1.3802,1.391,1.395,1.391,1.4116,1.4168,1.4338,1.4385,1.4427,1.446,1.4409,1.4619,1.4639,1.4657,1.4724,1.4751,1.4439,1.4439,1.4438,1.4438,0,1.3562,1.3665,1.3751,1.3854,1.392,1.4035,1.4064,1.413,1.4128,1.4157,1.4299,1.4361,1.4464,1.4504,1.4505,1.4675,1.4651,1.4615,1.4544,1.4689,1.4752,1.4778,1.4447,1.4445,1.4443,1.4442,0,0,1.3779,1.3886,1.3918,1.3964,1.4052,1.4132,1.4246,1.4346,1.4403,1.4477,1.4574,1.4712,1.468,1.4738,1.4744,1.4822,1.4973,1.4777,1.4779,1.4812,1.5165,1.5193,1.5223,1.496,1.4965,1.4969,1.5159,0,1.3961,1.4161,1.4173,1.4355,1.4451,1.4429,1.4528,1.4593,1.4623,1.4709,1.4741,1.484,1.4789,1.4824,1.49,1.4939,1.5044,1.4925,1.5051,1.5056,1.5034,1.5256,1.5286,1.5462,1.5184,1.5188,1.5191,0,1.4201,1.4282,1.4473,1.4546,1.4587,1.4676,1.4769,1.4851,1.4924,1.494,1.5004,1.4999,1.5116,1.5039,1.5201,1.512,1.5172,1.5199,1.5206,1.522,1.5134,1.5278,1.5519,1.5546,1.523,1.5227,1.5224,0,1.4342,1.4499,1.4633,1.4674,1.4763,1.4826,1.4866,1.4934,1.4993,1.5074,1.5113,1.5207,1.5259,1.5332,1.5353,1.5295,1.5515,1.5439,1.5533,1.5533,1.5582,1.5579,1.5837,1.5613,1.5612,1.5612,1.5611,0,1.4546,1.4664,1.4698,1.4781,1.4912,1.4925,1.5055,1.5091,1.5152,1.5242,1.5228,1.5313,1.5334,1.5424,1.544,1.5573,1.5596,1.5613,1.5616,1.5616,1.5614,1.5652,1.5641,1.5619,1.5617,1.5616,1.5614,0,1.4727,1.4755,1.49,1.4972,1.4992,1.5086,1.5148,1.5228,1.5255,1.5369,1.5396,1.5439,1.5544,1.5571,1.5695,1.5706,1.5863,1.5854,1.5839,1.5839,1.5931,1.5923,1.6224,1.6265,1.6012,1.6014,1.6016,0,1.4856,1.4946,1.5027,1.5086,1.5129,1.5224,1.5284,1.5299,1.5363,1.5452,1.5522,1.5624,1.5707,1.5874,1.5917,1.6012,1.6006,1.6105,1.6021,1.6017,1.601,1.6005,1.6015,1.6122,1.6125,1.6127,1.6129,0,1.5082,1.5091,1.5178,1.5271,1.5343,1.5416,1.5486,1.5536,1.5561,1.5633,1.5739,1.5803,1.5929,1.6032,1.6127,1.6169,1.6155,1.6154,1.6182,1.6183,1.6171,1.618,1.5884,1.6148,1.6146,1.6145,1.6144,1.6143,1.5243,1.5322,1.5391,1.5489,1.5543,1.5609,1.5687,1.5724,1.5812,1.5916,1.5919,1.6035,1.6105,1.6232,1.6279,1.637,1.634,1.6379,1.6389,1.6399,1.6408,1.6154,1.6387,1.6387,1.6386,1.6386,1.6385,0,1.5469,1.5513,1.5602,1.57,1.5777,1.5754,1.5831,1.5897,1.5998,1.6065,1.6146,1.6268,1.6366,1.6416,1.6514,1.6577,1.6573,1.6603,1.6599,1.6609,1.6428,1.6396,1.6605,1.6605,1.6605,1.6605,1.6604,1.6604,1.5597,1.573,1.5747,1.5907,1.5949,1.6062,1.6107,1.6168,1.6221,1.6358,1.6439,1.647,1.653,1.6632,1.6722,1.6734,1.6772,1.6806,1.6814,1.6644,1.6622,1.6601,1.6571,1.6813,1.6813,1.6988,1.699,1.6991]}]]